(301964) 2000 EJ37 (2001)

Japanese version
Home page
Updated on January 23, 2012

---------------------------------------------------------------------

* Profile

Designation (301964) 2000 EJ37
Discovery Date March 8, 2000
Magnitude
Discoverer Lincoln Laboratory Near-Earth Asteroid Research project

* Orbital Elements

Epoch 2001 Oct. 18.0 TT = JDT 2452200.5                 Spahr
M  27.36728              (2000.0)            P               Q
n   0.09709337     Peri.  110.46648     +0.42235898     +0.90631796
a   4.6882381      Node   184.59196     -0.88354398     +0.40815607
e   0.7043574      Incl.   10.19099     -0.20239299     +0.10952795
P  10.15           H   13.6           G   0.15           U   3

* Finding Charts

* Magnitudes Graph

        H = 13.6  G = 0.15

---------------------------------------------------------------------

The orbital elements are calculated by Dr. Timothy B. Spahr and printed on M.P.E.C. 2001-P45.
The charts are made with StellaNavigator Ver.2.0 for Windows (AstroArts / ASCII).
The magnitudes graphs are made with Comet for Windows.

---------------------------------------------------------------------

Copyright(C) Seiichi Yoshida (comet@aerith.net). All rights reserved.